Airfield :
LOGIN :

Register | Disclaimer

   EN    FR    IT 

 










Legend :    VFR   Marginal VFR   IFR   Intensive IFR   Very Intensive IFR
Visi :
Ceiling :
>= 8 km
>= 3000ft
5 to 8 km
1000 to 3000 ft
1500m to 5 km
500 to 1000 ft
800 to 1500m
200 to 500 ft
< 800m
< 200 ft
Symbols :   Thunderstorms  Fog  Heavy snow  Heavy precipitations  Wind > 20 kt
SIGMETs :     Misc.  Thunderstorms  Icing  Turbulence  Mountain Waves  Volcanic Ashes







- Airport Elevation : 1213 ft
- IATA code : SCQ


LEST - Santiago de Compostela

CURRENT METAR :
  • 191300Z VRB02KT CAVOK 18/05 Q1022 NOSIG

EXPIRED METARs :
  • 191230Z VRB02KT CAVOK 17/06 Q1022 NOSIG
  • 191200Z VRB02KT CAVOK 17/07 Q1023 NOSIG
  • 191130Z VRB02KT CAVOK 15/06 Q1023 NOSIG
  • 191100Z VRB02KT CAVOK 15/06 Q1023 NOSIG
  • 191030Z 14003KT 070V180 CAVOK 13/06 Q1023 NOSIG

TAF TAF LEST
Valid from the 19 at 12:00 until the 20 at 12:00 UTC


191100Z 1912/2012 VRB04KT CAVOK TX18/1915Z TN03/2006Z
No reported NOTAMs for that airfield.



MET'MAP, your aeronautical weather chart ! - Copyright ORBIFLY December 2007 - Disclaimer

ORBIFLY MET'MAP TEAM :

Programming & Development : Alexandra Zaïnal
Concept & Development : Baudouin d'Aumeries
Co-Development & Prog : Marc-Olivier Méhu
Technical & hardware support : Manuel Goepfert

Contact : metmap@orbifly.com




SOURCES & CREDITS :

   NOAA